Погода в Мочегае

Россия / Оренбургская область     53°41′11″N   53°09′28″E
темп.,
°C
ветер,
м/с
пор.,
м/с
влажн.,
%
обл.,
%
осадки,
мм/ч
давл.,
гПа
погр.,
м
5 августа, чт
чт523:00+28ссв493698 0.0 1008287
02:00+23сз5106071 0.0 1010279
05:00+19зсз3578100 0.0 1012140
08:00+22сз45695 0.0 1011354
11:00+26ссз55520 0.1 1011984
14:00+29ссз5537100 0.0 10111992
17:00+30сз642849 0.0 10102994
20:00+25ссз683717 0.0 10121220
6 августа, пт
пт623:00+18с35585 0.0 101375
02:00+16с22695 0.0 101419
05:00+15с22680 0.0 101423
08:00+18с37601 0.0 1015294
11:00+24с67370 0.0 10151934
14:00+27с56260 0.0 10142408
17:00+28ссз45233 0.0 10142671
20:00+25ссв472857 0.0 1014419
7 августа, сб
сб723:00+17ссв483527 0.0 1016116
02:00+15св34432 0.0 101746
05:00+13св225360 0.0 101710
08:00+17св224537 0.0 1018158
11:00+23с233197 0.0 10171218
14:00+27с45267 0.0 10172001
17:00+27с562822 0.0 10161729
20:00+24ссв56372 0.0 1017761
8 августа, вс
вс823:00+17ссв34564 0.0 101850
02:00+15св345811 0.0 101857
05:00+14всв225926 0.0 102018
08:00+18всв234911 0.0 1020182
11:00+24всв33355 0.0 1020905
14:00+28ссв452959 0.0 10181648
17:00+30с5728100 0.0 10181906
20:00+27ссв47345 0.0 1018390
9 августа, пн
пн923:00+20св2246100 0.0 102016
02:00+18всв354659 0.0 102066
05:00+17в224599 0.0 102028
08:00+20всв2339100 0.0 1021167
11:00+24всв3333100 0.0 1020709
14:00+28св342898 0.0 10191304
17:00+30всв442388 0.0 10181655
20:00+28вюв3524100 0.0 1017119